FALCON 9 DEB

Last updated on July 14, 2020, 12:02 a.m. UTC

1 45853U 20038BU  20195.42290990  .00292025  11517-4  21880-3 0  9991
2 45853  52.9963 143.8364 0077590 155.6221 204.8513 16.08104516  2704

Satellite is not in orbit.